Find Starlink 32564

NORAD ID: 61924 Int'l Des: 2024-207 Owner: SPXS Country: US Constellation: starlink operational
LEOCIRCULAR

Current View

Loading 3D Globe...

About Starlink 32564

Description loading...

Upcoming Passes

Passes for default location (London). Set your location on the main map for personalized predictions.

Altitude History

Loading altitude history...

Two-Line Element Set

1 61924U 24207N 26149.48018838 .00031002 00000-0 11305-2 0 9997
2 61924 43.0001 189.3064 0001299 285.4417 74.6291 15.27604808 87033
Epoch: May 29, 2026 • Age: 17 hours

Current Status

Altitude 481.8 km
Velocity 7.63 km/s
Sub-Earth Point 12.06°N, 122.27°W
Launch Date Nov 11, 2024
Age 1.5 years
Type internet

Technical Details

Classification Payload
Mass 730.00 kg
Dry Mass 700.00 kg
Total Mass 730.00 kg
Length 0.30 m
Diameter 4.10 m
Span 29.00 m
Shape Box + pan
Manufacturer SPXS
Bus Type Starlink V2M
Phase Status In Orbit
Owner/State SPXS/US

Most Searched